| time (UTC) | temp F | wind direction | speed MPH | gust MPH | rain 1hr in | rain 24hr in | rain mn in | humidity % | barometer mb |
| 20260507010116 | 47 | 222 | 0.0 | 0.0 | 0.07 | 0.71 | 0.71 | 99 | 1010.0 |
| 20260507005613 | 47 | 223 | 0.0 | 0.0 | 0.12 | 0.71 | 0.71 | 99 | 1010.1 |
| 20260507005109 | 47 | 225 | 0.0 | 1.0 | 0.05 | 0.70 | 0.70 | 99 | 1010.1 |
| 20260507004606 | 47 | 226 | 1.0 | 2.0 | 0.05 | 0.70 | 0.70 | 99 | 1010.0 |
| 20260507004104 | 47 | 224 | 0.0 | 0.0 | 0.00 | 0.69 | 0.69 | 99 | 1009.8 |
| 20260507003600 | 47 | 225 | 0.0 | 0.0 | 0.07 | 0.69 | 0.69 | 99 | 1009.9 |
| 20260507003055 | 47 | 226 | 1.0 | 2.0 | 0.07 | 0.69 | 0.69 | 99 | 1009.8 |
| 20260507002552 | 47 | 223 | 0.0 | 0.0 | 0.00 | 0.68 | 0.68 | 99 | 1009.7 |
| 20260507002047 | 48 | 229 | 1.0 | 2.0 | 0.00 | 0.68 | 0.68 | 99 | 1009.6 |
| 20260507001544 | 48 | 223 | 0.0 | 1.0 | 0.00 | 0.68 | 0.68 | 99 | 1009.6 |
| 20260507001042 | 48 | 224 | 0.0 | 0.0 | 0.00 | 0.68 | 0.68 | 99 | 1009.4 |
| 20260507000538 | 48 | 221 | 1.0 | 1.0 | 0.05 | 0.68 | 0.68 | 99 | 1009.2 |
| 20260507000033 | 48 | 226 | 0.0 | 1.0 | 0.05 | 0.68 | 0.68 | 99 | 1009.2 |
| 20260506235531 | 48 | 224 | 0.0 | 0.0 | 0.00 | 0.67 | 0.67 | 99 | 1009.2 |
| 20260506235027 | 48 | 224 | 0.0 | 0.0 | 0.00 | 0.67 | 0.67 | 99 | 1009.0 |
| 20260506234525 | 48 | 220 | 0.0 | 0.0 | 0.00 | 0.67 | 0.67 | 99 | 1009.0 |
| 20260506234022 | 48 | 221 | 0.0 | 0.0 | 0.00 | 0.67 | 0.67 | 99 | 1009.0 |
| 20260506233518 | 48 | 215 | 0.0 | 1.0 | 0.00 | 0.67 | 0.67 | 99 | 1008.8 |
| 20260506233015 | 48 | 227 | 1.0 | 2.0 | 0.07 | 0.67 | 0.67 | 99 | 1008.9 |
| 20260506232511 | 49 | 205 | 0.0 | 0.0 | 0.07 | 0.67 | 0.67 | 99 | 1008.9 |
| 20260506232007 | 49 | 233 | 1.0 | 2.0 | 0.00 | 0.66 | 0.66 | 99 | 1008.9 |
| 20260506231505 | 49 | 221 | 0.0 | 0.0 | 0.00 | 0.66 | 0.66 | 99 | 1008.8 |
| 20260506231002 | 49 | 224 | 1.0 | 1.0 | 0.00 | 0.66 | 0.66 | 99 | 1008.6 |
| 20260506230458 | 50 | 223 | 0.0 | 0.0 | 0.00 | 0.66 | 0.66 | 99 | 1008.6 |
| 20260506225955 | 50 | 217 | 0.0 | 0.0 | 0.00 | 0.66 | 0.66 | 99 | 1008.6 |
| 20260506225452 | 50 | 223 | 0.0 | 0.0 | 0.00 | 0.66 | 0.66 | 99 | 1008.7 |
| 20260506224948 | 50 | 220 | 0.0 | 0.0 | 0.00 | 0.66 | 0.66 | 99 | 1008.4 |
| 20260506224446 | 51 | 221 | 0.0 | 0.0 | 0.00 | 0.66 | 0.66 | 99 | 1008.2 |
| 20260506223942 | 51 | 233 | 2.0 | 3.0 | 0.00 | 0.66 | 0.66 | 99 | 1008.2 |
| 20260506223438 | 51 | 225 | 0.0 | 0.0 | 0.00 | 0.66 | 0.66 | 99 | 1008.6 |
| 20260506222935 | 52 | 233 | 1.0 | 1.0 | 0.00 | 0.66 | 0.66 | 99 | 1008.2 |
| 20260506222432 | 52 | 237 | 2.0 | 2.0 | 0.00 | 0.66 | 0.66 | 99 | 1008.3 |
| 20260506221929 | 53 | 231 | 1.0 | 2.0 | 0.00 | 0.66 | 0.66 | 99 | 1008.1 |
| 20260506221426 | 53 | 223 | 0.0 | 1.0 | 0.05 | 0.66 | 0.66 | 99 | 1007.8 |
| 20260506220924 | 54 | 220 | 0.0 | 0.0 | 0.24 | 0.66 | 0.66 | 99 | 1007.9 |
| 20260506220419 | 56 | 223 | 1.0 | 1.0 | 0.31 | 0.65 | 0.65 | 99 | 1007.9 |
| 20260506215916 | 58 | 220 | 1.0 | 1.0 | 0.24 | 0.63 | 0.63 | 99 | 1007.8 |
| 20260506215412 | 58 | 220 | 0.0 | 0.0 | 0.12 | 0.61 | 0.61 | 99 | 1007.3 |
| 20260506214908 | 58 | 219 | 0.0 | 0.0 | 0.12 | 0.59 | 0.59 | 99 | 1007.4 |
| 20260506214405 | 59 | 219 | 0.0 | 0.0 | 0.24 | 0.59 | 0.59 | 99 | 1007.4 |
| 20260506213902 | 58 | 219 | 0.0 | 0.0 | 0.24 | 0.58 | 0.58 | 99 | 1007.3 |
| 20260506213400 | 59 | 220 | 0.0 | 0.0 | 0.12 | 0.55 | 0.55 | 99 | 1007.3 |
| 20260506212857 | 59 | 220 | 0.0 | 0.0 | 0.12 | 0.54 | 0.54 | 99 | 1007.5 |
| 20260506212353 | 59 | 220 | 0.0 | 0.0 | 0.12 | 0.53 | 0.53 | 99 | 1007.6 |
| 20260506211848 | 59 | 220 | 0.0 | 0.0 | 0.24 | 0.53 | 0.53 | 99 | 1007.7 |
| 20260506211344 | 59 | 220 | 0.0 | 0.0 | 0.24 | 0.51 | 0.51 | 99 | 1007.6 |
| 20260506210842 | 59 | 224 | 0.0 | 0.0 | 0.19 | 0.49 | 0.49 | 99 | 1007.5 |
| 20260506210338 | 59 | 224 | 0.0 | 0.0 | 0.12 | 0.47 | 0.47 | 99 | 1007.4 |
| 20260506205836 | 59 | 220 | 0.0 | 0.0 | 0.05 | 0.46 | 0.46 | 99 | 1007.5 |
| 20260506205331 | 59 | 219 | 1.0 | 1.0 | 0.00 | 0.45 | 0.45 | 99 | 1007.6 |
| 20260506204828 | 59 | 224 | 0.0 | 0.0 | 0.00 | 0.45 | 0.45 | 99 | 1007.6 |
| 20260506204326 | 59 | 223 | 0.0 | 0.0 | 0.07 | 0.45 | 0.45 | 99 | 1007.5 |
| 20260506203823 | 59 | 221 | 0.0 | 0.0 | 0.07 | 0.45 | 0.45 | 99 | 1007.7 |
| 20260506203320 | 59 | 223 | 0.0 | 0.0 | 0.00 | 0.44 | 0.44 | 99 | 1007.8 |
| 20260506202817 | 59 | 222 | 0.0 | 0.0 | 0.00 | 0.44 | 0.44 | 99 | 1007.6 |
| 20260506202314 | 59 | 222 | 0.0 | 0.0 | 0.05 | 0.44 | 0.44 | 99 | 1007.7 |
| 20260506201810 | 59 | 220 | 0.0 | 0.0 | 0.05 | 0.44 | 0.44 | 99 | 1007.8 |
| 20260506201308 | 59 | 219 | 0.0 | 0.0 | 0.00 | 0.43 | 0.43 | 99 | 1008.1 |
| 20260506200805 | 60 | 219 | 0.0 | 0.0 | 0.00 | 0.43 | 0.43 | 99 | 1008.1 |
| 20260506200301 | 60 | 223 | 0.0 | 0.0 | 0.00 | 0.43 | 0.43 | 99 | 1008.0 |
| 20260506195757 | 60 | 224 | 0.0 | 0.0 | 0.00 | 0.43 | 0.43 | 99 | 1008.0 |
| 20260506195254 | 60 | 223 | 0.0 | 0.0 | 0.07 | 0.43 | 0.43 | 99 | 1008.2 |
| 20260506194751 | 60 | 223 | 0.0 | 0.0 | 0.07 | 0.43 | 0.43 | 99 | 1008.0 |
| 20260506194247 | 60 | 224 | 0.0 | 0.0 | 0.00 | 0.42 | 0.42 | 99 | 1008.3 |
| 20260506193745 | 60 | 224 | 0.0 | 0.0 | 0.00 | 0.42 | 0.42 | 99 | 1008.4 |
| 20260506193242 | 60 | 224 | 0.0 | 0.0 | 0.00 | 0.42 | 0.42 | 99 | 1008.1 |
| 20260506192738 | 59 | 224 | 0.0 | 0.0 | 0.05 | 0.42 | 0.42 | 99 | 1008.6 |
| 20260506192235 | 60 | 224 | 0.0 | 0.0 | 0.05 | 0.42 | 0.42 | 99 | 1008.4 |
| 20260506191732 | 59 | 224 | 0.0 | 0.0 | 0.07 | 0.41 | 0.41 | 99 | 1008.4 |
| 20260506191228 | 59 | 224 | 0.0 | 0.0 | 0.07 | 0.41 | 0.41 | 99 | 1008.7 |
| 20260506190725 | 59 | 224 | 0.0 | 0.0 | 0.12 | 0.41 | 0.41 | 99 | 1008.6 |
| 20260506190222 | 59 | 224 | 0.0 | 0.0 | 0.12 | 0.40 | 0.40 | 99 | 1008.7 |
| 20260506185719 | 59 | 224 | 0.0 | 0.0 | 0.14 | 0.39 | 0.39 | 99 | 1008.7 |
| 20260506185215 | 58 | 224 | 0.0 | 0.0 | 0.12 | 0.38 | 0.38 | 99 | 1008.8 |
| 20260506184713 | 58 | 226 | 0.0 | 0.0 | 0.17 | 0.37 | 0.37 | 99 | 1008.8 |
| 20260506184210 | 58 | 226 | 0.0 | 1.0 | 0.19 | 0.36 | 0.36 | 99 | 1008.8 |
| 20260506183707 | 58 | 224 | 0.0 | 0.0 | 0.19 | 0.34 | 0.34 | 99 | 1008.7 |
| 20260506183202 | 58 | 222 | 0.0 | 0.0 | 0.17 | 0.33 | 0.33 | 99 | 1008.6 |
| 20260506182700 | 58 | 221 | 0.0 | 0.0 | 0.19 | 0.32 | 0.32 | 99 | 1008.6 |
| 20260506182157 | 58 | 218 | 0.0 | 0.0 | 0.19 | 0.30 | 0.30 | 99 | 1008.7 |
| 20260506181655 | 58 | 225 | 0.0 | 0.0 | 0.24 | 0.29 | 0.29 | 99 | 1008.9 |
| 20260506181152 | 57 | 220 | 0.0 | 0.0 | 0.19 | 0.27 | 0.27 | 99 | 1009.0 |
| 20260506180649 | 57 | 214 | 0.0 | 0.0 | 0.19 | 0.25 | 0.25 | 99 | 1009.2 |
| 20260506180145 | 57 | 205 | 0.0 | 0.0 | 0.19 | 0.23 | 0.23 | 99 | 1009.3 |
| 20260506175642 | 57 | 215 | 1.0 | 1.0 | 0.17 | 0.22 | 0.22 | 99 | 1009.3 |
| 20260506175139 | 57 | 212 | 0.0 | 0.0 | 0.12 | 0.20 | 0.20 | 99 | 1009.3 |
| 20260506174631 | 57 | 202 | 0.0 | 0.0 | 0.19 | 0.19 | 0.19 | 99 | 1009.4 |
| 20260506174127 | 57 | 220 | 0.0 | 0.0 | 0.17 | 0.18 | 0.18 | 99 | 1009.6 |
| 20260506173625 | 57 | 221 | 1.0 | 2.0 | 0.12 | 0.17 | 0.17 | 99 | 1009.5 |
| 20260506173121 | 57 | 215 | 0.0 | 0.0 | 0.14 | 0.15 | 0.15 | 99 | 1009.6 |
| 20260506172619 | 57 | 217 | 0.0 | 0.0 | 0.19 | 0.15 | 0.15 | 99 | 1009.5 |
| 20260506172115 | 57 | 221 | 0.0 | 0.0 | 0.05 | 0.13 | 0.13 | 99 | 1009.5 |
| 20260506171613 | 57 | 220 | 0.0 | 0.0 | 0.07 | 0.12 | 0.12 | 99 | 1009.5 |
| 20260506171110 | 57 | 211 | 0.0 | 0.0 | 0.12 | 0.12 | 0.12 | 99 | 1009.9 |
| 20260506170607 | 57 | 206 | 0.0 | 0.0 | 0.12 | 0.11 | 0.11 | 99 | 1009.9 |
| 20260506170105 | 57 | 212 | 0.0 | 0.0 | 0.12 | 0.10 | 0.10 | 99 | 1010.1 |
| 20260506165603 | 57 | 214 | 0.0 | 1.0 | 0.05 | 0.09 | 0.09 | 99 | 1010.0 |
| 20260506165059 | 57 | 212 | 0.0 | 1.0 | 0.07 | 0.08 | 0.08 | 99 | 1010.0 |
| 20260506164556 | 57 | 205 | 0.0 | 0.0 | 0.07 | 0.08 | 0.08 | 99 | 1010.0 |
| 20260506164053 | 57 | 209 | 0.0 | 1.0 | 0.00 | 0.07 | 0.07 | 99 | 1009.9 |
| 20260506163549 | 57 | 214 | 0.0 | 0.0 | 0.05 | 0.07 | 0.07 | 99 | 1009.7 |
| 20260506163045 | 57 | 218 | 0.0 | 0.0 | 0.05 | 0.07 | 0.07 | 99 | 1010.0 |
| 20260506162542 | 57 | 223 | 0.0 | 0.0 | 0.00 | 0.06 | 0.06 | 99 | 1010.4 |
| 20260506162039 | 58 | 225 | 0.0 | 0.0 | 0.07 | 0.06 | 0.06 | 99 | 1010.4 |
| 20260506161537 | 58 | 221 | 0.0 | 0.0 | 0.07 | 0.06 | 0.06 | 99 | 1010.5 |
| 20260506161033 | 58 | 225 | 0.0 | 0.0 | 0.07 | 0.06 | 0.06 | 99 | 1010.5 |
| 20260506160531 | 58 | 228 | 0.0 | 1.0 | 0.05 | 0.05 | 0.05 | 99 | 1011.0 |
| 20260506160028 | 57 | 225 | 0.0 | 0.0 | 0.05 | 0.05 | 0.05 | 99 | 1011.0 |
| 20260506155526 | 57 | 228 | 0.0 | 0.0 | 0.00 | 0.04 | 0.04 | 99 | 1011.0 |
| 20260506153657 | 58 | 222 | 0.0 | 0.0 | 0.05 | 0.03 | 0.03 | 99 | 1011.5 |
| 20260506153154 | 57 | 222 | 0.0 | 0.0 | 0.00 | 0.02 | 0.02 | 98 | 1011.5 |
| 20260506152651 | 57 | 222 | 0.0 | 0.0 | 0.00 | 0.02 | 0.02 | 98 | 1011.3 |
| 20260506152149 | 57 | 222 | 0.0 | 0.0 | 0.07 | 0.02 | 0.02 | 98 | 1011.5 |
| 20260506151648 | 57 | 222 | 0.0 | 0.0 | 0.07 | 0.02 | 0.02 | 98 | 1011.4 |
| 20260506151144 | 57 | 226 | 0.0 | 0.0 | 0.00 | 0.01 | 0.01 | 98 | 1011.2 |
| 20260506150641 | 58 | 226 | 0.0 | 0.0 | 0.00 | 0.01 | 0.01 | 98 | 1011.3 |
| 20260506150138 | 57 | 225 | 0.0 | 0.0 | 0.00 | 0.01 | 0.01 | 98 | 1011.2 |
| 20260506145635 | 57 | 225 | 0.0 | 0.0 | 0.00 | 0.01 | 0.01 | 98 | 1011.4 |
| 20260506145131 | 57 | 221 | 0.0 | 0.0 | 0.00 | 0.01 | 0.01 | 98 | 1011.2 |
| 20260506144629 | 57 | 226 | 0.0 | 0.0 | 0.00 | 0.01 | 0.01 | 99 | 1011.5 |
| 20260506144126 | 57 | 219 | 0.0 | 0.0 | 0.00 | 0.01 | 0.01 | 99 | 1011.2 |
| 20260506143624 | 57 | 219 | 0.0 | 0.0 | 0.00 | 0.01 | 0.01 | 99 | 1011.4 |
| 20260506143121 | 57 | 220 | 0.0 | 0.0 | 0.00 | 0.01 | 0.01 | 99 | 1011.4 |
| 20260506142620 | 56 | 214 | 0.0 | 0.0 | 0.00 | 0.01 | 0.01 | 99 | 1011.4 |
| 20260506142117 | 56 | 202 | 0.0 | 0.0 | 0.00 | 0.01 | 0.01 | 99 | 1011.6 |
| 20260506141614 | 56 | 217 | 0.0 | 0.0 | 0.00 | 0.01 | 0.01 | 99 | 1011.5 |
| 20260506141113 | 56 | 217 | 0.0 | 0.0 | 0.00 | 0.01 | 0.01 | 99 | 1011.3 |
| 20260506140610 | 56 | 219 | 0.0 | 0.0 | 0.00 | 0.01 | 0.01 | 99 | 1011.5 |
| 20260506140107 | 56 | 213 | 0.0 | 0.0 | 0.00 | 0.01 | 0.01 | 99 | 1011.3 |
| 20260506135603 | 56 | 217 | 0.0 | 0.0 | 0.00 | 0.01 | 0.01 | 99 | 1011.4 |
| 20260506135100 | 56 | 217 | 0.0 | 0.0 | 0.00 | 0.01 | 0.01 | 99 | 1011.2 |
| 20260506134556 | 56 | 219 | 0.0 | 0.0 | 0.00 | 0.01 | 0.01 | 99 | 1011.2 |
| 20260506134052 | 56 | 219 | 0.0 | 0.0 | 0.00 | 0.01 | 0.01 | 99 | 1011.5 |
| 20260506133549 | 56 | 220 | 0.0 | 0.0 | 0.00 | 0.01 | 0.01 | 99 | 1011.6 |
| 20260506133047 | 56 | 219 | 0.0 | 0.0 | 0.00 | 0.01 | 0.01 | 99 | 1011.7 |
| 20260506132544 | 56 | 220 | 0.0 | 0.0 | 0.00 | 0.01 | 0.01 | 99 | 1011.8 |
| 20260506132041 | 56 | 222 | 0.0 | 0.0 | 0.00 | 0.01 | 0.01 | 99 | 1011.8 |
| 20260506131538 | 55 | 221 | 0.0 | 0.0 | 0.00 | 0.01 | 0.01 | 99 | 1011.9 |
| 20260506131034 | 56 | 215 | 0.0 | 0.0 | 0.00 | 0.01 | 0.01 | 99 | 1011.9 |
| 20260506130531 | 55 | 215 | 0.0 | 0.0 | 0.00 | 0.01 | 0.01 | 99 | 1011.7 |
| 20260506130029 | 55 | 215 | 0.0 | 0.0 | 0.00 | 0.01 | 0.01 | 99 | 1011.9 |
| 20260506125527 | 55 | 216 | 0.0 | 0.0 | 0.00 | 0.01 | 0.01 | 99 | 1011.8 |
| 20260506125024 | 55 | 216 | 0.0 | 0.0 | 0.00 | 0.01 | 0.01 | 99 | 1011.9 |
| 20260506124522 | 55 | 209 | 0.0 | 0.0 | 0.00 | 0.01 | 0.01 | 99 | 1011.9 |
| 20260506124020 | 55 | 208 | 0.0 | 0.0 | 0.00 | 0.01 | 0.01 | 99 | 1011.8 |
| 20260506123518 | 55 | 208 | 0.0 | 0.0 | 0.00 | 0.01 | 0.01 | 99 | 1011.6 |
| 20260506123015 | 55 | 207 | 0.0 | 0.0 | 0.00 | 0.01 | 0.01 | 99 | 1011.9 |
| 20260506122512 | 55 | 203 | 0.0 | 0.0 | 0.00 | 0.01 | 0.01 | 99 | 1011.7 |
| 20260506122010 | 55 | 203 | 0.0 | 0.0 | 0.00 | 0.01 | 0.01 | 99 | 1011.7 |
| 20260506121507 | 55 | 205 | 0.0 | 0.0 | 0.00 | 0.01 | 0.01 | 99 | 1011.6 |
| 20260506121003 | 55 | 203 | 0.0 | 0.0 | 0.00 | 0.01 | 0.01 | 99 | 1011.6 |
| 20260506120501 | 55 | 209 | 0.0 | 0.0 | 0.00 | 0.01 | 0.01 | 99 | 1012.1 |
| 20260506115958 | 56 | 209 | 0.0 | 0.0 | 0.00 | 0.01 | 0.01 | 99 | 1011.9 |
| 20260506115456 | 56 | 208 | 0.0 | 0.0 | 0.00 | 0.01 | 0.01 | 99 | 1012.2 |
| 20260506114954 | 55 | 208 | 0.0 | 0.0 | 0.00 | 0.01 | 0.01 | 99 | 1012.0 |
| 20260506114451 | 55 | 208 | 0.0 | 0.0 | 0.00 | 0.01 | 0.01 | 99 | 1011.9 |
| 20260506113950 | 55 | 207 | 0.0 | 0.0 | 0.00 | 0.01 | 0.01 | 99 | 1012.1 |
| 20260506113447 | 55 | 220 | 0.0 | 0.0 | 0.00 | 0.01 | 0.01 | 99 | 1012.1 |
| 20260506112943 | 54 | 220 | 0.0 | 0.0 | 0.00 | 0.01 | 0.01 | 99 | 1012.1 |
| 20260506112442 | 54 | 220 | 0.0 | 0.0 | 0.00 | 0.01 | 0.01 | 99 | 1011.9 |
| 20260506111938 | 53 | 215 | 0.0 | 0.0 | 0.00 | 0.01 | 0.01 | 99 | 1012.1 |
| 20260506111437 | 53 | 218 | 0.0 | 0.0 | 0.00 | 0.01 | 0.01 | 99 | 1012.1 |
| 20260506110933 | 53 | 214 | 0.0 | 0.0 | 0.00 | 0.01 | 0.01 | 99 | 1012.1 |
| 20260506110431 | 53 | 217 | 0.0 | 0.0 | 0.00 | 0.01 | 0.01 | 99 | 1012.4 |
| 20260506105927 | 53 | 226 | 0.0 | 0.0 | 0.00 | 0.01 | 0.01 | 99 | 1012.1 |
| 20260506105424 | 52 | 226 | 0.0 | 1.0 | 0.00 | 0.01 | 0.01 | 99 | 1012.0 |
| 20260506104921 | 52 | 226 | 0.0 | 0.0 | 0.00 | 0.01 | 0.01 | 99 | 1012.0 |
| 20260506104419 | 52 | 226 | 0.0 | 0.0 | 0.00 | 0.01 | 0.01 | 99 | 1012.0 |
| 20260506103917 | 52 | 226 | 0.0 | 0.0 | 0.00 | 0.01 | 0.01 | 99 | 1012.2 |
| 20260506103414 | 52 | 226 | 0.0 | 0.0 | 0.00 | 0.01 | 0.01 | 99 | 1012.0 |
| 20260506102911 | 52 | 226 | 0.0 | 0.0 | 0.00 | 0.01 | 0.01 | 99 | 1012.0 |
| 20260506102409 | 52 | 226 | 0.0 | 0.0 | 0.00 | 0.01 | 0.01 | 99 | 1012.0 |
| 20260506101906 | 51 | 226 | 0.0 | 0.0 | 0.00 | 0.01 | 0.01 | 99 | 1011.8 |
| 20260506101402 | 51 | 226 | 0.0 | 0.0 | 0.00 | 0.01 | 0.01 | 99 | 1012.1 |
| 20260506100859 | 51 | 226 | 0.0 | 0.0 | 0.00 | 0.01 | 0.01 | 99 | 1012.0 |
| 20260506100358 | 51 | 226 | 0.0 | 0.0 | 0.00 | 0.01 | 0.01 | 99 | 1011.8 |
| 20260506095856 | 51 | 226 | 0.0 | 0.0 | 0.00 | 0.01 | 0.01 | 99 | 1011.9 |
| 20260506095354 | 51 | 226 | 0.0 | 0.0 | 0.00 | 0.01 | 0.01 | 99 | 1012.0 |
| 20260506094851 | 51 | 226 | 0.0 | 0.0 | 0.00 | 0.01 | 0.01 | 99 | 1011.9 |
| 20260506094350 | 51 | 226 | 0.0 | 0.0 | 0.00 | 0.01 | 0.01 | 99 | 1011.9 |
| 20260506093847 | 51 | 226 | 0.0 | 0.0 | 0.00 | 0.01 | 0.01 | 99 | 1011.9 |
| 20260506093344 | 51 | 226 | 0.0 | 0.0 | 0.00 | 0.01 | 0.01 | 99 | 1012.0 |
| 20260506092842 | 51 | 226 | 0.0 | 0.0 | 0.00 | 0.01 | 0.01 | 99 | 1012.2 |
| 20260506092339 | 51 | 226 | 0.0 | 0.0 | 0.00 | 0.01 | 0.01 | 99 | 1011.9 |
| 20260506091836 | 51 | 226 | 0.0 | 0.0 | 0.00 | 0.01 | 0.01 | 99 | 1011.9 |
| 20260506091334 | 51 | 226 | 0.0 | 0.0 | 0.00 | 0.01 | 0.01 | 99 | 1012.1 |
| 20260506090831 | 51 | 226 | 0.0 | 0.0 | 0.00 | 0.01 | 0.01 | 99 | 1011.9 |
| 20260506090329 | 52 | 226 | 0.0 | 0.0 | 0.00 | 0.01 | 0.01 | 99 | 1012.2 |
| 20260506085825 | 52 | 226 | 0.0 | 0.0 | 0.00 | 0.01 | 0.01 | 99 | 1012.0 |
| 20260506085321 | 52 | 226 | 0.0 | 0.0 | 0.00 | 0.01 | 0.01 | 99 | 1012.0 |
| 20260506084817 | 52 | 226 | 0.0 | 0.0 | 0.00 | 0.01 | 0.01 | 99 | 1012.2 |
| 20260506084314 | 53 | 226 | 0.0 | 0.0 | 0.00 | 0.01 | 0.01 | 99 | 1012.4 |
| 20260506083811 | 53 | 226 | 0.0 | 0.0 | 0.00 | 0.01 | 0.01 | 99 | 1012.0 |
| 20260506083308 | 53 | 226 | 0.0 | 0.0 | 0.00 | 0.01 | 0.01 | 99 | 1012.0 |
| 20260506082806 | 53 | 226 | 0.0 | 0.0 | 0.00 | 0.01 | 0.01 | 99 | 1012.3 |
| 20260506082304 | 52 | 226 | 0.0 | 0.0 | 0.00 | 0.01 | 0.01 | 99 | 1012.0 |
| 20260506081759 | 53 | 226 | 0.0 | 0.0 | 0.00 | 0.01 | 0.01 | 99 | 1012.2 |
| 20260506081256 | 53 | 226 | 0.0 | 0.0 | 0.00 | 0.01 | 0.01 | 99 | 1012.0 |
| 20260506080754 | 53 | 226 | 0.0 | 0.0 | 0.00 | 0.01 | 0.01 | 99 | 1012.2 |
| 20260506080250 | 53 | 226 | 0.0 | 0.0 | 0.00 | 0.01 | 0.01 | 99 | 1012.0 |
| 20260506073234 | 54 | 227 | 0.0 | 0.0 | 0.00 | 0.01 | 0.01 | 99 | 1012.1 |
| 20260506072731 | 54 | 227 | 0.0 | 0.0 | 0.00 | 0.01 | 0.01 | 99 | 1012.1 |
| 20260506072229 | 54 | 227 | 0.0 | 0.0 | 0.00 | 0.01 | 0.01 | 99 | 1012.3 |
| 20260506071726 | 54 | 227 | 0.0 | 0.0 | 0.00 | 0.01 | 0.01 | 99 | 1012.0 |
| 20260506071224 | 54 | 227 | 0.0 | 0.0 | 0.00 | 0.01 | 0.01 | 99 | 1012.0 |
| 20260506070720 | 54 | 227 | 0.0 | 0.0 | 0.00 | 0.01 | 0.01 | 99 | 1011.7 |
| 20260506070218 | 54 | 227 | 0.0 | 0.0 | 0.00 | 0.01 | 0.01 | 99 | 1011.8 |
| 20260506062155 | 54 | 221 | 0.0 | 0.0 | 0.00 | 0.01 | 0.01 | 99 | 1012.0 |
| 20260506061650 | 54 | 221 | 0.0 | 0.0 | 0.00 | 0.01 | 0.01 | 99 | 1012.0 |
| 20260506061148 | 54 | 221 | 0.0 | 0.0 | 0.00 | 0.01 | 0.01 | 99 | 1012.0 |
| 20260506060647 | 54 | 221 | 0.0 | 0.0 | 0.00 | 0.01 | 0.01 | 99 | 1012.2 |
| 20260506060143 | 54 | 221 | 0.0 | 0.0 | 0.00 | 0.01 | 0.01 | 99 | 1012.1 |
| 20260506051115 | 54 | 221 | 0.0 | 0.0 | 0.00 | 0.01 | 0.01 | 99 | 1011.9 |
| 20260506050613 | 54 | 221 | 0.0 | 0.0 | 0.00 | 0.01 | 0.01 | 99 | 1011.8 |
| 20260506050110 | 54 | 221 | 0.0 | 0.0 | 0.00 | 0.01 | 0.01 | 99 | 1011.9 |
| 20260506045103 | 54 | 221 | 0.0 | 0.0 | 0.00 | 0.01 | 0.01 | 99 | 1012.0 |
| 20260506044602 | 54 | 221 | 0.0 | 0.0 | 0.00 | 0.01 | 0.01 | 99 | 1011.8 |
| 20260506044058 | 54 | 221 | 0.0 | 0.0 | 0.00 | 0.01 | 0.01 | 99 | 1011.9 |
| 20260506043555 | 54 | 221 | 0.0 | 0.0 | 0.00 | 0.01 | 0.01 | 99 | 1012.1 |
| 20260506043054 | 54 | 221 | 0.0 | 0.0 | 0.00 | 0.01 | 0.01 | 99 | 1011.7 |
| 20260506042552 | 54 | 221 | 0.0 | 0.0 | 0.00 | 0.01 | 0.01 | 99 | 1011.9 |
| 20260506042050 | 54 | 221 | 0.0 | 0.0 | 0.07 | 0.01 | 0.01 | 99 | 1011.9 |
| 20260506041548 | 54 | 221 | 0.0 | 0.0 | 0.07 | 0.01 | 0.01 | 99 | 1012.0 |
| 20260506041045 | 54 | 221 | 0.0 | 0.0 | 0.00 | 0.00 | 0.00 | 99 | 1012.0 |
| 20260506040543 | 54 | 221 | 0.0 | 0.0 | 0.00 | 0.00 | 0.00 | 99 | 1011.9 |
| 20260506040038 | 54 | 221 | 0.0 | 0.0 | 0.00 | 0.11 | 0.11 | 99 | 1011.8 |
| 20260506035536 | 54 | 221 | 0.0 | 0.0 | 0.00 | 0.11 | 0.11 | 99 | 1011.7 |
| 20260506035032 | 54 | 221 | 0.0 | 0.0 | 0.00 | 0.11 | 0.11 | 99 | 1011.9 |
| 20260506034530 | 54 | 221 | 0.0 | 0.0 | 0.00 | 0.11 | 0.11 | 99 | 1011.8 |
| 20260506034026 | 54 | 220 | 0.0 | 0.0 | 0.00 | 0.11 | 0.11 | 99 | 1011.8 |
| 20260506033524 | 54 | 221 | 0.0 | 0.0 | 0.00 | 0.11 | 0.11 | 99 | 1011.9 |
| 20260506033021 | 54 | 221 | 0.0 | 0.0 | 0.00 | 0.11 | 0.11 | 99 | 1011.7 |
| 20260506032518 | 54 | 221 | 0.0 | 0.0 | 0.00 | 0.11 | 0.11 | 99 | 1011.8 |
| 20260506032015 | 54 | 221 | 0.0 | 0.0 | 0.00 | 0.11 | 0.11 | 99 | 1011.9 |
| 20260506031512 | 54 | 221 | 0.0 | 0.0 | 0.00 | 0.11 | 0.11 | 99 | 1011.5 |
| 20260506031010 | 54 | 221 | 0.0 | 0.0 | 0.00 | 0.11 | 0.11 | 99 | 1011.9 |
| 20260506030508 | 54 | 221 | 0.0 | 0.0 | 0.00 | 0.11 | 0.11 | 99 | 1012.1 |
| 20260506030004 | 54 | 221 | 0.0 | 0.0 | 0.00 | 0.11 | 0.11 | 99 | 1012.0 |
| 20260506025501 | 54 | 221 | 0.0 | 0.0 | 0.00 | 0.11 | 0.11 | 99 | 1011.7 |
| 20260506024957 | 54 | 221 | 0.0 | 0.0 | 0.00 | 0.11 | 0.11 | 99 | 1011.8 |
| 20260506024454 | 54 | 221 | 0.0 | 0.0 | 0.00 | 0.11 | 0.11 | 99 | 1011.7 |
| 20260506023950 | 54 | 221 | 0.0 | 0.0 | 0.00 | 0.11 | 0.11 | 99 | 1011.9 |
| 20260506023447 | 54 | 221 | 0.0 | 0.0 | 0.00 | 0.11 | 0.11 | 99 | 1011.6 |
| 20260506022944 | 54 | 221 | 0.0 | 0.0 | 0.00 | 0.11 | 0.11 | 99 | 1011.6 |
| 20260506022442 | 54 | 221 | 0.0 | 0.0 | 0.00 | 0.11 | 0.11 | 99 | 1011.7 |
| 20260506021939 | 54 | 221 | 0.0 | 0.0 | 0.00 | 0.11 | 0.11 | 99 | 1011.6 |
| 20260506021436 | 54 | 221 | 0.0 | 0.0 | 0.00 | 0.11 | 0.11 | 99 | 1011.6 |
| 20260506020933 | 54 | 221 | 0.0 | 0.0 | 0.00 | 0.11 | 0.11 | 99 | 1011.4 |
| 20260506020431 | 54 | 221 | 0.0 | 0.0 | 0.00 | 0.11 | 0.11 | 99 | 1011.5 |
| 20260506015928 | 54 | 220 | 0.0 | 0.0 | 0.00 | 0.11 | 0.11 | 99 | 1011.5 |
| 20260506015425 | 54 | 220 | 0.0 | 0.0 | 0.00 | 0.11 | 0.11 | 99 | 1011.5 |
| 20260506014922 | 55 | 220 | 0.0 | 0.0 | 0.00 | 0.11 | 0.11 | 99 | 1011.5 |
| 20260506014419 | 55 | 221 | 0.0 | 0.0 | 0.00 | 0.11 | 0.11 | 99 | 1011.2 |
| 20260506013916 | 55 | 221 | 0.0 | 0.0 | 0.00 | 0.11 | 0.11 | 99 | 1011.3 |
| 20260506013414 | 55 | 221 | 0.0 | 0.0 | 0.00 | 0.11 | 0.11 | 99 | 1011.5 |
| 20260506012909 | 56 | 221 | 0.0 | 0.0 | 0.00 | 0.11 | 0.11 | 99 | 1011.7 |
| 20260506012406 | 56 | 221 | 0.0 | 0.0 | 0.00 | 0.11 | 0.11 | 99 | 1011.3 |
| 20260506011903 | 56 | 221 | 0.0 | 0.0 | 0.00 | 0.11 | 0.11 | 99 | 1011.6 |
| 20260506011400 | 56 | 221 | 0.0 | 0.0 | 0.00 | 0.11 | 0.11 | 99 | 1011.4 |
| 20260506010857 | 56 | 221 | 0.0 | 0.0 | 0.00 | 0.11 | 0.11 | 99 | 1011.2 |